Location: Mason-Dixon Star Party
(40.0361°N, 76.9958°W)
Time: 08:04:04
(UTC-04:00)

Daily predictions for brighter satellites

Satellite Brightness Start Highest point End
(mag) Time Altitude Azimuth Time Altitude Azimuth Time Altitude Azimuth
Resurs 01 Rocket 2.8 19:12:36 10° ESE 19:16:06 23° ENE 19:19:35 10° NNE
SL-8 R/B 3.7 19:15:36 10° SW 19:20:24 83° SSE 19:25:12 10° ENE
COSMO-SKYMED 1 2.6 19:16:13 10° NNE 19:20:36 90° SE 19:24:56 10° SSW
NOSS 3-2 (A) 4.2 19:14:47 10° SW 19:20:44 56° NW 19:27:17 10° NNE
MSX 4.1 19:15:15 10° S 19:21:00 79° WSW 19:26:47 10° NNW
SJ-6B 3.2 19:19:27 10° SE 19:23:17 45° ENE 19:27:12 10° N
ALOS 3.8 19:21:19 10° ESE 19:24:20 17° ENE 19:27:20 10° NNE
Cosmos 1076 Rocket 3.5 19:21:41 10° N 19:26:03 79° E 19:30:23 10° S
Cosmos 1484 Rocket 2.9 19:22:18 10° S 19:26:09 83° WSW 19:30:06 10° NNW
Nadezhda 4 Rocket 4.4 19:21:27 10° N 19:27:17 40° ENE 19:33:02 10° SE
SL-19 R/B 4.4 19:24:12 10° SSE 19:29:51 79° ENE 19:35:54 10° NNW
ATLAS CENTAUR R/B 3.6 19:25:22 10° SW 19:30:04 84° NW 19:45:15 10° NE
Cosmos 1378 4.0 19:27:04 10° NNW 19:30:44 55° W 19:34:22 10° S
IDEFIX/ARIANE 42P 4.2 19:28:13 10° SSW 19:33:04 39° W 19:37:59 10° NNW
SL-16 R/B 3.7 19:29:12 10° SW 19:34:32 40° WNW 19:39:54 10° N
Cosmos-2242 3.0 19:32:00 10° S 19:36:18 64° E 19:40:40 10° NNE
Cosmos 1766 Rocket 3.5 19:32:29 10° N 19:36:52 85° E 19:41:11 10° S
Meteor 1-29 4.1 19:34:52 10° NE 19:37:44 23° E 19:40:33 10° SSE
Cosmos 1758 3.3 19:36:38 10° S 19:40:43 84° E 19:44:50 10° N
CENTAUR R/B 2.7 19:37:40 10° S 19:43:22 49° ESE 19:49:44 10° NE
ISS -3.0 19:41:47 10° WSW 19:45:00 64° NW 19:48:05 11° NE
Cosmos 1452 Rocket 3.9 19:40:03 10° NNW 19:45:16 67° WSW 19:50:28 10° S
Meteor 1-21 Rocket 4.1 19:44:13 10° N 19:49:47 78° E 19:55:18 10° SSE
Abrixas 3.7 19:48:01 10° W 19:50:51 38° NNW 19:53:12 14° NE
NOAA 12 4.1 19:45:48 10° SSE 19:51:03 87° ENE 19:56:23 10° NNW
SAR-Lupe-1 4.3 19:48:01 10° S 19:51:33 73° WSW 19:55:07 10° NNW
GPS 2-04 Rocket1 3.2 19:48:24 10° WSW 19:51:37 38° S 19:53:27 21° ESE
Cosmos 2251 Rocket 4.5 19:48:25 10° SSE 19:52:31 24° E 19:56:38 10° NE
Meteor 1-28 Rocket 3.3 19:49:50 10° N 19:53:34 79° WNW 19:57:15 10° SSW
Cosmos 1634 Rocket 4.5 19:48:52 10° SSE 19:54:28 36° E 20:00:03 10° NNE
CZ-2D R/B 4.4 19:57:19 23° E 19:58:02 24° ENE 20:01:13 10° NNE
Cosmos 1943 Rocket 3.4 19:56:50 10° N 20:01:14 23° NE 20:02:50 20° ENE
Cosmos 1420 Rocket 4.1 19:58:10 10° NNW 20:03:30 84° WSW 20:08:49 10° SSE
ERBS 4.2 20:02:59 10° NNW 20:05:27 18° NNE 20:05:53 17° NE
H-2A R/B 3.6 20:06:03 29° E 20:06:30 30° ENE 20:09:54 10° N
Cosmos 1346 3.7 20:03:46 10° NNW 20:06:42 55° W 20:09:37 10° S
Cosmos 1500 Rocket 3.5 20:03:59 10° N 20:08:25 64° E 20:12:50 10° SSE
Cosmos 1842 Rocket 3.4 20:05:08 10° S 20:09:25 70° E 20:13:46 10° NNE
Helios 1A 2.9 20:05:47 10° SSE 20:09:59 76° ENE 20:14:12 10° N
OAO 3 Rocket 4.3 20:07:25 10° W 20:11:39 33° SSW 20:14:10 20° SE
Cosmos 2369 Rocket 2.2 20:07:20 10° NNW 20:12:57 61° ENE 20:16:53 20° SE
Cosmos 1943 3.1 20:08:20 10° SSW 20:13:56 72° ESE 20:19:33 10° NNE
FREGAT/IRIS 4.1 20:11:49 10° S 20:14:44 39° W 20:17:40 10° NNW
Spot 2 Rocket 3.5 20:11:09 10° SSE 20:16:11 83° WSW 20:21:15 10° NNW
AVUM R/B 3.0 20:15:21 10° SSW 20:17:52 57° SSE 20:17:52 57° SSE
Cosmos 1048 Rocket 4.5 20:16:22 10° SSW 20:21:37 63° WNW 20:26:49 10° NNE
HJ-1C 4.3 20:21:20 10° S 20:24:36 50° W 20:27:54 10° NNW
Cosmos 1733 3.1 20:22:08 10° S 20:25:59 89° W 20:29:53 10° N
Cosmos 158 Rocket 3.7 20:22:05 10° SSW 20:26:58 88° ESE 20:31:53 10° NNE
Cosmos 2263 4.3 20:21:23 10° NNW 20:27:06 58° ENE 20:29:26 34° SE
Gbstr 26 Del rocket 3.5 20:25:13 10° WSW 20:29:37 68° NNW 20:32:55 23° NE
USA 215 3.2 20:25:37 13° NE 20:31:37 71° SE 20:38:07 10° SW
Cosmos 1174 4.3 20:27:40 10° SW 20:32:21 62° WNW 20:35:32 14° NNE
Cosmos 1674 3.3 20:28:56 10° NNW 20:32:45 56° W 20:36:33 10° S
Helios 1B rocket 3.3 20:31:46 10° N 20:35:44 50° WNW 20:39:43 10° SSW
Cosmos 1470 3.7 20:34:39 10° SSW 20:38:25 49° W 20:42:11 10° N
CZ-4B DEB 3.2 20:39:43 60° NNW 20:39:43 60° NNW 20:42:30 10° NNW
Resurs 1-3 4.3 20:37:25 10° S 20:41:42 54° W 20:46:01 10° NNW
Cosmos 1627 Rocket 4.4 20:36:15 10° N 20:42:29 72° E 20:46:26 24° SSE
ATLAS 5 CENTAUR R/B 4.5 20:41:05 10° WNW 20:44:22 17° NW 20:47:50 10° N
Resurs 01 Rocket 3.4 20:48:24 10° SSW 20:52:22 32° W 20:56:22 10° NNW
ERS-1 Rocket 4.1 20:56:03 31° NNE 20:56:03 31° NNE 20:59:07 10° N
Cosmos 2058 3.8 20:53:03 10° N 20:55:44 39° N 20:55:44 39° N
Meteor 1-16 Rocket 4.0 20:53:23 10° S 20:58:40 82° W 21:04:02 10° N
Cosmos 2180 Rocket 4.4 21:00:27 57° ENE 21:00:27 57° ENE 21:06:02 10° NNE
ALOS 3.1 20:58:31 21° SSW 21:01:22 49° W 21:05:54 10° NNW
Meteor 2-1 Rocket 4.1 20:56:16 10° S 21:02:02 78° E 21:07:56 10° NNE
Cosmos 2151 3.9 21:06:54 10° NNW 21:10:56 45° W 21:11:13 44° WSW
Cosmos 2279 Rocket 3.8 21:09:24 24° S 21:13:20 89° W 21:19:35 10° N
Cosmos 1110 Rocket 4.3 21:08:27 10° NNW 21:13:43 64° WSW 21:14:19 59° SW
GP-B 4.0 21:10:13 10° N 21:14:30 47° W 21:15:21 41° WSW
Meteor 1-11 4.5 21:10:50 10° NNW 21:16:35 68° W 21:17:57 50° SSW
Cosmos 2221 4.4 21:21:56 24° NNW 21:21:56 24° NNW 21:23:45 10° N
ISS -0.1 21:19:56 10° NW 21:20:46 13° NW 21:20:46 13° NW
CENTAUR R/B 4.0 21:28:39 10° WSW 21:34:14 34° NW 21:40:29 10° NNE
Cosmos 1943 Rocket 3.0 21:39:51 10° NNW 21:44:23 47° WNW 21:44:23 47° WNW
USA 215 4.3 22:13:01 35° N 22:14:20 39° NNW 22:20:16 10° W
